This is the latest recevied weather packets stored in our database for station/object W7TRD. If no packets are shown the sender has not sent any weather packets the latest 10 day(s).
| Time | Temp. | Humidity | Pressure | Rain* | Wind** | Luminosity | Snow |
|---|---|---|---|---|---|---|---|
| 1777681623 | 23.33° C | 53% | 1014.9 hPa | 0 mm | - | 270 W/m² | - |
| 1777681321 | 23.33° C | 54% | 1014.8 hPa | 0 mm | - | 333 W/m² | - |
| 1777681018 | 22.78° C | 54% | 1014.9 hPa | 0 mm | - | 358 W/m² | - |
| 1777680715 | 22.78° C | 54% | 1014.8 hPa | 0 mm | - | 342 W/m² | - |
| 1777680413 | 22.78° C | 51% | 1014.8 hPa | 0 mm | - | 226 W/m² | - |
| 1777680111 | 23.33° C | 50% | 1014.7 hPa | 0 mm | - | 367 W/m² | - |
| 1777679806 | 23.89° C | 53% | 1014.8 hPa | 0 mm | - | 375 W/m² | - |
| 1777679503 | 24.44° C | 52% | 1014.7 hPa | 0 mm | - | 317 W/m² | - |
| 1777679198 | 24.44° C | 52% | 1014.7 hPa | 0 mm | - | 399 W/m² | - |
| 1777678896 | 23.89° C | 53% | 1014.7 hPa | 0 mm | - | 439 W/m² | - |
| 1777678593 | 23.89° C | 53% | 1014.9 hPa | 0 mm | - | 423 W/m² | - |
| 1777678291 | 24.44° C | 55% | 1014.9 hPa | 0 mm | - | 323 W/m² | - |
| 1777677987 | 23.89° C | 54% | 1014.7 hPa | 0 mm | - | 290 W/m² | - |
| 1777677685 | 24.44° C | 53% | 1014.8 hPa | 0 mm | - | 430 W/m² | - |
| 1777677382 | 23.89° C | 53% | 1015 hPa | 0 mm | - | 440 W/m² | - |
| 1777677080 | 23.89° C | 53% | 1015 hPa | 0 mm | - | 461 W/m² | - |
| 1777676778 | 23.89° C | 53% | 1015 hPa | 0 mm | - | 493 W/m² | - |
| 1777676476 | 23.89° C | 51% | 1015.1 hPa | 0 mm | - | 456 W/m² | - |
| 1777676173 | 23.89° C | 52% | 1015.3 hPa | 0 mm | - | 515 W/m² | - |
| 1777675869 | 24.44° C | 52% | 1015.4 hPa | 0 mm | - | 528 W/m² | - |
| 1777675567 | 23.89° C | 52% | 1015.3 hPa | 0 mm | - | 261 W/m² | - |
| 1777675263 | 23.89° C | 50% | 1015.3 hPa | 0 mm | - | 505 W/m² | - |
| 1777674960 | 25° C | 50% | 1015.5 hPa | 0 mm | - | 495 W/m² | - |
| 1777674657 | 25° C | 50% | 1015.5 hPa | 0 mm | - | 585 W/m² | - |
| 1777674374 | 23.89° C | 51% | 1015.6 hPa | 0 mm | - | 610 W/m² | - |
* Rain latest hour (hover to see other rain measurements)
** Current wind speed in m/s (hover to see current wind gust speed)